Location: Allentsteig
(48.6833°N, 15.3167°E)
Time: 01:16:52
(UTC+00:00)

Cosmos 2263 Rocket - Pass Details

Date: 18 September 2020
Orbit: 822 x 850 km, 71.0° (Epoch: 29 October)

Event Time Altitude Azimuth Distance (km) Brightness Sun altitude
Rises 19:33:03 0° 248° (WSW) 3,354 5.8 -24.0°
Reaches altitude 10° 19:35:55 10° 262° (W) 2,427 5.2 -24.4°
Maximum altitude 19:40:25 24° 316° (NW) 1,642 4.4 -25.0°
Drops below altitude 10° 19:44:57 10° 10° (N) 2,450 4.9 -25.6°
Sets 19:47:52 0° 24° (NNE) 3,392 5.5 -26.0°
